Location: Vancouver
(49.2500°N, 123.1330°W)
Time: 06:36:35
(UTC-07:00)

Iridium 35 - Visible Passes

Search period start: 18 April 2014 00:00
Search period end: 28 April 2014 00:00
Orbit: 776 x 779 km, 86.4° (Epoch: 17 April)

Date Brightness Start Highest point End Pass type
(mag) Time Alt. Az. Time Alt. Az. Time Alt. Az.
18 Apr 6.7 03:35:43 10° NNE 03:40:21 31° ENE 03:44:58 10° SE visible
18 Apr 5.6 05:16:21 10° NNW 05:21:10 39° W 05:25:57 10° SSW visible
19 Apr 7.4 03:02:47 10° NNE 03:06:30 19° ENE 03:10:12 10° ESE visible
19 Apr 5.0 04:42:35 10° N 04:47:46 67° W 04:52:55 10° S visible
20 Apr 7.8 02:30:46 10° NE 02:32:31 12° ENE 02:34:15 10° E visible
20 Apr 5.2 04:09:01 10° N 04:14:15 73° E 04:19:27 10° S visible
21 Apr 6.1 03:35:38 10° N 03:40:37 43° E 03:45:33 10° SSE visible
21 Apr 6.0 05:16:44 10° NNW 05:21:09 29° W 05:25:32 10° SW visible
22 Apr 6.9 03:02:30 10° NNE 03:06:51 26° ENE 03:11:10 10° SE visible
22 Apr 5.3 04:42:49 10° NNW 04:47:49 48° W 04:52:48 10° SSW visible
23 Apr 7.6 02:29:47 10° NNE 02:32:56 16° ENE 02:36:04 10° ESE visible
23 Apr 5.0 04:09:08 10° N 04:14:23 82° W 04:19:04 13° S visible
24 Apr 5.5 03:35:38 10° N 03:40:49 59° E 03:45:18 14° SSE visible
24 Apr 6.4 05:17:15 10° NNW 05:21:05 21° WNW 05:24:54 10° SW visible
25 Apr 6.4 03:02:21 10° NNE 03:07:07 35° ENE 03:11:33 12° SE visible
25 Apr 5.7 04:43:08 10° NNW 04:47:50 35° W 04:52:00 13° SW visible
26 Apr 7.2 02:29:20 10° NNE 02:33:18 21° ENE 02:37:14 10° ESE visible
26 Apr 5.1 04:09:19 10° N 04:14:27 59° W 04:18:16 18° SSW visible
27 Apr 7.6 01:56:58 10° NE 01:59:20 13° ENE 02:01:41 10° E visible
27 Apr 5.0 03:35:43 10° N 03:40:58 82° E 03:44:35 21° S visible
27 Apr 6.7 05:18:00 10° NW 05:20:58 16° WNW 05:23:56 10° WSW visible
